{"data":{"norad_id":56005,"epoch":"2026-05-25T00:07:24.952224Z","epoch_age_seconds":70460,"freshness":"FRESH","line1":"1 56005U 23042V   26145.00514991  .00000583  00000+0  30721-4 0  9996","line2":"2 56005  43.0015 352.6456 0000991 283.0685  77.0056 15.27571209174492","mean_motion":15.27571209,"eccentricity":9.91e-5,"inclination_deg":43.0015,"raan_deg":352.6456,"arg_perigee_deg":283.0685,"mean_anomaly_deg":77.0056,"bstar":3.0721e-5,"rev_number":17449,"period_min":94.267291208157,"perigee_km":482.39547343166,"apogee_km":483.75536573322,"semimajor_km":6861.2124195824,"source":"CELESTRAK","updated_at":"2026-05-25T13:38:17.925265Z"}}